Find Starlink 35976

NORAD ID: 66534 Int'l Des: 2025-265 Owner: SPXS Country: US Constellation: starlink operational
LEOCIRCULAR

現在のビュー

3D地球を読み込み中...

About Starlink 35976

Starlink 35976 (NORAD 66534) is a starlink constellation satellite (v2 mini) launched Nov 19, 2025 by SPXS of US. It operates in LEO, CIRCULAR orbit with a mass of 575.00 kg.

Starlink 35976について

説明を読み込み中...

次回通過

Passes for default location (London). Set your location on the main map for personalized predictions.

高度履歴

Loading altitude history...

軌道要素

1 66534U 25265U 26195.30673400 .00004533 00000-0 17412-3 0 9993
2 66534 43.0021 283.2371 0001596 268.6645 91.4023 15.27583454 36473
Epoch: Jul 14, 2026 • Age: 12 hours

現在のステータス

高度 488.5 km
遠地点 / 近地点 N/A
速度 7.62 km/s
衛星直下点 -25.21°S, 21.28°E
打ち上げ日 Nov 19, 2025
運用期間 0.6 years
タイプ internet

技術仕様

分類 Payload
質量 575.00 kg
乾燥質量 530.00 kg
総質量 575.00 kg
長さ 0.30 m
直径 4.10 m
スパン 29.00 m
形状 Box + pan
製造者 SPXS
バスタイプ Starlink V2MO
フェーズステータス In Orbit
所有者/国 SPXS/US

Most Searched